Location: *
(49.4547°N, 7.9131°E)
Time: 05:35:42
(UTC+00:00)

Cosmos 2297 Rocket - Pass Details

Date: 22 September 2019
Orbit: 841 x 842 km, 71.0° (Epoch: 22 October)

Event Time Altitude Azimuth Distance (km) Brightness Sun altitude
Rises 19:56:19 0° 227° (SW) 3,389 5.5 -23.9°
Reaches altitude 10° 19:58:51 10° 234° (SW) 2,458 4.8 -24.2°
Maximum altitude 20:04:16 46° 307° (NW) 1,123 3.2 -25.0°
Drops below altitude 10° 20:09:43 10° 20° (NNE) 2,471 4.8 -25.7°
Sets 20:12:17 0° 27° (NNE) 3,410 5.5 -26.1°
